Woman Race

La Ladies - Andenne (6.00 km)

dimanche 17 octobre 2021

Vous pouvez trouver Le classement original sur : http://ultratiming.be  
 
LA LADIES - ANDENNE
DISTANCE : 6.00 km
dimanche 17 octobre 2021
 
Place Dos NOM Catégorie Pl/cat Temps Temps/km Vitesse
01:00:00              
1 7240 PONLOT FLORINE DAME 1 0:24:36 04:06 14.63
2 7134 DUSSARD MAYA DAME 2 0:25:03 04:11 14.37
3 7274 TRIBOLET CÉLINE DAME 3 0:26:03 04:21 13.82
4 7088 CHAMPION ÉLODIE DAME 4 0:26:37 04:26 13.53
5 7241 PONLOT EMERANCE DAME 5 0:27:29 04:35 13.10
6 7144 GABRIEL JUSTINE DAME 6 0:28:58 04:50 12.43
7 7214 MOSSERAY VIRGINIE DAME 7 0:29:09 04:51 12.35
8 6513 DEWINTER ANNE DAME 8 0:29:10 04:52 12.34
9 7180 LE BELLER MARIE DAME 9 0:29:14 04:52 12.31
10 6830 BECK MAELLE DAME 10 0:29:23 04:54 12.25
11 7118 DE CEULAER LOLA DAME 11 0:29:28 04:55 12.22
12 6812 BAYOT CATHERINE DAME 12 0:31:28 05:15 11.44
13 7228 ORBAN JUSTINE DAME 13 0:31:30 05:15 11.43
14 7153 GILLES LAETITIA DAME 14 0:31:36 05:16 11.39
15 7260 SKA CLAUDINE DAME 15 0:31:40 05:17 11.37
16 7129 DI BERNARDO.. KATIANA DAME 16 0:31:42 05:17 11.36
17 6997 BODART GISÈLE DAME 17 0:31:54 05:19 11.29
18 7231 PARIS MARYSIA DAME 18 0:32:17 05:23 11.15
19 7295 WAWRZYNIAK CHANTAL DAME 19 0:32:22 05:24 11.12
20 7139 FRANÇOIS CHARLOTTE DAME 20 0:32:39 05:27 11.03
21 7273 TOUSSAINT LÉNA DAME 21 0:32:49 05:28 10.97
22 7219 NELIS JESSICA DAME 22 0:32:50 05:28 10.96
23 7257 SEPULCHRE VÉRONIQUE DAME 23 0:33:29 05:35 10.75
24 6519 BERLAGE LAURENT DAME 24 0:33:39 05:37 10.70
25 6506 LOJIC ENISA DAME 25 0:33:54 05:39 10.62
26 7190 LIBOIS ANNE DAME 26 0:34:25 05:44 10.46
27 6509 BOUSSART VANESSA DAME 27 0:34:32 05:45 10.42
28 7103 CUSTINE SOPHIE DAME 28 0:34:39 05:46 10.39
29 7094 CHASSEUR FLORENCE DAME 29 0:34:41 05:47 10.38
30 7063 BOXUS STÉPHANIE DAME 30 0:34:44 05:47 10.36
31 7236 PLATEVOET LILOU DAME 31 0:34:48 05:48 10.34
32 6516 D'HAENS JUSTINE DAME 32 0:34:57 05:49 10.30
33 7247 RIJCKAERT LÉANE DAME 33 0:35:00 05:50 10.29
34 7232 PÉTRÉ CLÉMENTINE DAME 34 0:35:02 05:50 10.28
35 6517 JACQUET MARIE DAME 35 0:35:03 05:50 10.27
36 7201 MATERNE WANDA DAME 36 0:35:13 05:52 10.22
37 7270 THIRY VÉRONIQUE DAME 37 0:35:22 05:54 10.18
38 7296 BOUCHAT ANNE DAME 38 0:35:22 05:54 10.18
39 7254 RYCKAERT JACQUELINE DAME 39 0:35:23 05:54 10.17
40 7128 DEWULF JEANNE DAME 40 0:35:38 05:56 10.10
41 7248 RINGLET RÉGINE DAME 41 0:35:39 05:56 10.10
42 7249 ROEGIERS LAURENCE DAME 42 0:35:39 05:56 10.10
43 7145 GAHYDE GENEVIEVE DAME 43 0:35:59 06:00 10.00
44 6503 HANNOT SOPHIE DAME 44 0:36:00 06:00 10.00
45 7233 PHILIPPART CINDY DAME 45 0:36:04 06:01 9.98
46 7179 LALLEMAND DOROTHÉE DAME 46 0:36:06 06:01 9.97
47 6521 THOMAS AYANI DAME 47 0:36:18 06:03 9.92
48 7089 CHARLIER MELISSA DAME 48 0:36:28 06:05 9.87
49 7105 DE BECKER VANESSA DAME 49 0:36:29 06:05 9.87
50 6522 SERET MARIE DAME 50 0:36:31 06:05 9.86
51 7185 LEMAIRE AGATHE DAME 51 0:36:34 06:06 9.85
52 7285 VAN VLIEBERGHE ELISE DAME 52 0:36:35 06:06 9.84
53 7163 HAYEN JUSTINE DAME 53 0:36:37 06:06 9.83
54 7159 HALKIN NATHALIE DAME 54 0:36:38 06:06 9.83
55 6518 PONSELET CLAIRE DAME 55 0:36:39 06:07 9.82
56 7147 GASPARD ANNE DAME 56 0:36:41 06:07 9.81
57 7189 LIBOIS AUDREY DAME 57 0:36:41 06:07 9.81
58 7291 VINCINAUX CAROLINE DAME 58 0:36:42 06:07 9.81
59 7255 SALA LAURENCE DAME 59 0:36:44 06:07 9.80
60 9964 GRIGORAS CELLANDIA DAME 60 0:36:44 06:07 9.80
61 9963 GRIGORAS ANAIS DAME 61 0:36:46 06:08 9.79
62 7125 DESCHUYTENEER LAURENCE DAME 62 0:36:46 06:08 9.79
63 7173 JUVIJNS MARIE DAME 63 0:36:48 06:08 9.78
64 6504 VIGNERANT VANESSA DAME 64 0:36:54 06:09 9.76
65 7184 LELANGUE JULIE DAME 65 0:37:07 06:11 9.70
66 7230 PARIS SEVERINE DAME 66 0:37:11 06:12 9.68
67 7221 NEVRAUMONT JULIE DAME 67 0:37:19 06:13 9.65
68 6512 PIROT CECILE DAME 68 0:37:21 06:14 9.64
69 7135 DUTERME ANNE-SOPHIE DAME 69 0:37:23 06:14 9.63
70 7226 ORBAN CORINE DAME 70 0:37:28 06:15 9.61
71 7127 DEWULF MARIE DAME 71 0:37:29 06:15 9.60
72 7054 BORGHS FRANÇOISE DAME 72 0:37:34 06:16 9.58
73 7123 DEMULIES VERONIQUE DAME 73 0:37:35 06:16 9.58
74 7242 PROSDOCIMI MAUD DAME 74 0:37:35 06:16 9.58
75 7065 BRAINE NATACHA DAME 75 0:37:40 06:17 9.56
76 7083 CAROLINE RENSON DAME 76 0:37:46 06:18 9.53
77 6834 BELGE MYRIAM DAME 77 0:37:48 06:18 9.52
78 7071 BROUWERS LINDSAY DAME 78 0:37:50 06:18 9.52
79 6514 GOCHEL NATHALIE DAME 79 0:37:54 06:19 9.50
80 6515 FROTANO ROSA DAME 80 0:37:56 06:19 9.49
81 7203 MATHY VALENTINE DAME 81 0:37:57 06:20 9.49
82 7174 KANKINDI JACQUELINE DAME 82 0:37:59 06:20 9.48
83 7206 MESSIAEN ISABELLE DAME 83 0:38:04 06:21 9.46
84 7195 LOUIS JENNIFER DAME 84 0:38:45 06:28 9.29
85 7148 GASQUET EMILIE DAME 85 0:38:47 06:28 9.28
86 6505 SIMONIS VANESSA DAME 86 0:38:51 06:29 9.27
87 7122 DEMASEURE SABRINA DAME 87 0:38:51 06:29 9.27
88 7132 DONNAY SABRINA DAME 88 0:38:58 06:30 9.24
89 7276 TRUFIN CAROLINE DAME 89 0:39:14 06:32 9.18
90 7207 MEURISSE CLÉMENTINE DAME 90 0:39:51 06:38 9.03
91 6738 ALEXANDRE SANDRINE DAME 91 0:39:55 06:39 9.02
92 7119 DE KEYSER CAROLINE DAME 92 0:39:57 06:40 9.01
93 7142 FRISAN GISÈLE DAME 93 0:40:00 06:40 9.00
94 7188 LIBERT SOPHIE DAME 94 0:40:03 06:41 8.99
95 7269 THIROUX JULIE DAME 95 0:40:08 06:41 8.97
96 6796 ARNOLD LARA DAME 96 0:40:18 06:43 8.93
97 6800 BARBIER CHRISTEL DAME 97 0:40:20 06:43 8.93
98 7256 SCHEMBRI EMILIE DAME 98 0:40:24 06:44 8.91
99 7197 MANIRAKIZA TANJA DAME 99 0:40:34 06:46 8.87
100 7216 MOUSSET ANNE DAME 100 0:40:35 06:46 8.87
101 6798 ARNOLD MÉLISSA DAME 101 0:40:37 06:46 8.86
102 6693 ALBART LAURENCE DAME 102 0:40:38 06:46 8.86
103 7186 LEMEUNIER MARIE DAME 103 0:40:46 06:48 8.83
104 7224 NOËL EURYDICE DAME 104 0:40:52 06:49 8.81
105 7120 DE WIT CAROLE DAME 105 0:40:52 06:49 8.81
106 7264 STARCEVIC ALIX DAME 106 0:40:55 06:49 8.80
107 7124 DERROITTE CLÉMENCE DAME 107 0:40:58 06:50 8.79
108 7258 SEVERINE PINOY DAME 108 0:41:11 06:52 8.74
109 6502 CARETTE MANON DAME 109 0:41:21 06:54 8.71
110 7290 VAROTTO CLOTILDE DAME 110 0:41:29 06:55 8.68
111 7234 PIROTTE MARIE DAME 111 0:41:34 06:56 8.66
112 7136 DYLST EMILIE DAME 112 0:41:47 06:58 8.62
113 6520 ENGELS LAURELINE DAME 113 0:41:49 06:58 8.61
114 7278 VACCARELLO PINA DAME 114 0:41:50 06:58 8.61
115 7244 REIS YARA DAME 115 0:42:15 07:03 8.52
116 7100 CRESTON DEBORAH DAME 116 0:42:59 07:10 8.38
117 7289 VANPÉ NOÉLIA DAME 117 0:43:05 07:11 8.36
118 7146 GARRO FABIENNE DAME 118 0:43:08 07:11 8.35
119 7213 MONTALBANO NUNZIATA DAME 119 0:43:15 07:12 8.32
120 7210 MILLISEN MARIE DAME 120 0:44:29 07:25 8.09
121 7237 PLATEVOET CORALIE DAME 121 0:44:32 07:25 8.08
122 7202 MATHIEU ALLYSON DAME 122 0:44:36 07:26 8.07
123 7288 VANDENPUT CLAIRE DAME 123 0:44:39 07:26 8.06
124 7261 SMETTIN MARYON DAME 124 0:45:01 07:30 8.00
125 7245 RENWART ALICE DAME 125 0:45:04 07:31 7.99
126 6501 PANIS ALEXANDRA DAME 126 0:47:56 07:59 7.51
127 7220 NEMERY SARAH DAME 127 0:52:39 08:46 6.84
128 7200 MASPER CLAUDIA DAME 128 0:52:48 08:48 6.82
129 7243 RAPAGNA JESSICA DAME 129 0:53:43 08:57 6.70
130 7263 SOUFI TOURIA DAME 130 0:53:47 08:58 6.69
131 7268 TAMINIAUX MOLLY DAME 131 0:55:06 09:11 6.53
132 7267 TAMINIAUX EMY DAME 132 0:55:14 09:12 6.52
133 7198 MARIN PASCALE DAME 133 0:55:15 09:12 6.52
134 7116 DE BROGNIEZ MORGANE DAME 134 0:56:33 09:25 6.37
135 7117 DE BROGNIEZ AUDRINE DAME 135 0:56:39 09:26 6.35
136 7253 RUWET CÉCIL DAME 136 0:57:39 09:36 6.24
137 7262 SOPHIE MICHELS DAME 137 0:58:46 09:48 6.13
138 6742 ANNE-FRANÇOISE PÉTREMENT DAME 138 0:59:13 09:52 6.08
139 7208 MICHELS ALINE DAME 139 0:59:30 09:55 6.05
140 7177 KYMPERS CATHERINE DAME 140 0:59:44 09:57 6.03
141 7178 LACROSSE MAUD DAME 141 0:59:49 09:58 6.02
142 6508 STRUVAY ISABELLE DAME 142 1:10:54 11:49 5.08
143 6507 JAVAUX KARIN DAME 143 1:10:57 11:50 5.07
144 7078 BUTTINO TERESA DAME 144 1:13:23 12:14 4.91
145 7077 BUTTINO LUCIA DAME 145 1:13:23 12:14 4.91
146 7130 DI CINTIO AUDREY DAME 146 1:13:23 12:14 4.91
147 7283 VAN KERREBROECK ALINE DAME 147 1:21:01 13:30 4.44
148 7282 VAN KERREBROECK CELINE DAME 148 1:21:01 13:30 4.44
               
Nos dernières videos